Regional Weather Roundup
Issued by NWS

Home | Current Version | Previous Version | Graphics & Text | Print | Product List | Glossary On
Versions: 1 2 3 4 5 6 7 8 9 10 11 12 13 14 15 16 17 18 19 20 21 22 23 24 25 26 27 28 29 30 31 32 33 34 35 36 37 38 39 40 41 42 43 44 45 46 47 48 49 50
971
ASUS43 KLOT 241108
RWRIL

ILLINOIS REGIONAL WEATHER ROUNDUP
NATIONAL WEATHER SERVICE CHICAGO/ROMEOVILLE IL
600 AM CDT TUE MAY 24 2016

NOTE: "FAIR" INDICATES FEW OR NO CLOUDS BELOW 12,000 FEET WITH NO
SIGNIFICANT WEATHER AND/OR OBSTRUCTIONS TO VISIBILITY.

* THESE STATIONS ARE NOT UNDER NWS QUALITY CONTROL. THEY ALSO MAY NOT
  REPORT WEATHER SUCH AS PRECIPITATION OR FOG.

ILZ001-002-007-009-015-016-024-241200-
NORTHWEST ILLINOIS

CITY           SKY/WX    TMP DP  RH WIND       PRES   REMARKS
MOLINE         MOCLDY    65  52  62 CALM      29.94R
STERLING*      PTCLDY    61  51  70 SE3       29.95R
SAVANNA*       MOCLDY    61  52  74 S6        29.94R
$$

ILZ003-004-008-010-011-017-018-241200-
NORTH CENTRAL ILLINOIS

CITY           SKY/WX    TMP DP  RH WIND       PRES   REMARKS
ROCKFORD       PTCLDY    58  49  72 S3        29.98R
FREEPORT*      CLEAR     57  49  74 S5        29.96R
ROCHELLE*      PTCLDY    55  48  77 S3        29.97R
DE KALB*       CLOUDY    56  49  78 S6        29.98R
$$

ILZ005-006-012>014-019>023-241200-
NORTHEAST ILLINOIS

CITY           SKY/WX    TMP DP  RH WIND       PRES   REMARKS
CHICAGO-OHARE  CLOUDY    61  46  57 CALM      29.97R
CHICAGO-MIDWAY CLOUDY    65  44  46 S7        29.98R
AURORA         CLOUDY    55  47  74 CALM      29.98R
LANSING*       CLOUDY    59  45  60 CALM      30.00R
JOLIET*        CLEAR     55  49  82 CALM      29.99R
WAUKEGAN       CLOUDY    60  47  61 SW6       29.96S
DUPAGE AIRPORT CLOUDY    57  46  66 S3        29.97S
KANKAKEE*      CLOUDY   N/A N/A N/A S6        30.01R
WHEELING       CLOUDY    59  47  64 S5        29.98S
MORRIS*        CLEAR     59  48  66 CALM      29.98R
ROMEOVILLE*    CLEAR     58  44  61 SE6       29.99R
NORTHERLY ISL    N/A     66  42  41 SW6         N/A
NORTHERLY ISL    N/A     66  42  41 SW6         N/A
$$

LMZ740>746-241200-
SOUTHERN LAKE MICHIGAN

STATION/POSITION SKY/WX   TEMP    WIND        PRES    VSBY  WAVE
                          AIR SEA DIR/SP/G                  HT/PER
                          (F)     (DEG/KT/KT) (MB)    (MI)  (FT/S)
SOUTHERN BUOY              52 47  170/ 10/ 12 1014.6R         1
WILMETTE HARBOR            61 55  240/  8/ 10   N/A           1/ 2
HARRISON CRIB              68     210/ 17/ 19   N/A
BURNHAM HARBOR             66     240/  5/  7   N/A
CALUMET HARBOR             64     180/  5/  8 1014.6R
BURNS HARBOR               63     190/ 11/ 16 1015.9R
MICHIGAN CITY              65     160/ 14/ 16   N/A
MICHIGAN CITY 6N           61 56  200/  8/ 10   N/A           1
ST. JOSEPH                 60 56  180/  6/  8   N/A           1
$$

ILZ025>027-034>036-040-047-049-050-058-095>099-241200-
WEST-CENTRAL ILLINOIS

CITY           SKY/WX    TMP DP  RH WIND       PRES   REMARKS
QUINCY         PTCLDY    63  54  72 S7        29.95R
GALESBURG*     MOCLDY    61  53  75 S5        29.96R
MACOMB*        CLOUDY    62  55  77 S7        29.97S
JACKSONVILLE*  PTCLDY    64  54  68 S6        29.96S
PITTSFIELD*    CLOUDY    61  56  85 S3        29.97R
$$

ILZ028>032-037-038-041>044-048-051>054-059>061-241200-
CENTRAL ILLINOIS

CITY           SKY/WX    TMP DP  RH WIND       PRES   REMARKS
PONTIAC        CLOUDY    62  52  70 S5        30.00R
BLOOMINGTON    CLOUDY    59  53  80 S7        30.00R
DECATUR        CLEAR     60  50  69 S6        29.99S
PEORIA         CLEAR     59  51  75 S3        29.97S
LACON*         MOCLDY    59  51  75 SE3       29.96S
LINCOLN*       CLOUDY    59  54  85 CALM      29.98R
SPRINGFIELD    PTCLDY    62  54  74 S6        29.98R
TAYLORVILLE    PTCLDY    60  54  82 SE7       29.99R
$$

ILZ033-039-045-046-055>057-062-063-241200-
EAST-CENTRAL ILLINOIS

CITY           SKY/WX    TMP DP  RH WIND       PRES   REMARKS
CHAMPAIGN      PTCLDY    57  47  69 S5        30.01R
RANTOUL*       CLOUDY    58  48  68 SE5       30.01S
MATTOON        PTCLDY    60  48  64 S7        30.01R
PARIS*         PTCLDY    57  48  72 CALM      30.04R
$$

ILZ079-100>102-241200-
SOUTHWEST ILLINOIS

CITY           SKY/WX    TMP DP  RH WIND       PRES   REMARKS
ALTON          PTCLDY    61  55  80 SE7       29.98S
BELLEVILLE     PTCLDY    59  59 100 CALM      29.97S FOG
CAHOKIA*       CLOUDY    66  55  67 SE3       29.97S
SPARTA*        CLOUDY    69  55  60 CALM      30.00S
$$

ILZ064>066-069>071-074>076-080>082-084>086-088>090-092>094-241200-
SOUTH-CENTRAL ILLINOIS

CITY           SKY/WX    TMP DP  RH WIND       PRES   REMARKS
CARBONDALE     CLOUDY    62  59  90 CALM      30.01R
CAIRO*         CLOUDY    62  60  93 CALM      30.02R
EFFINGHAM*     PTCLDY    56  54  91 E6        30.03R
MARION         CLOUDY    64  57  77 CALM      30.02S
MT. VERNON     PTCLDY    54  48  82 CALM      30.02R
CENTRALIA*     CLOUDY    61  56  86 SE3       30.01R
SALEM*         CLOUDY    62  53  70 SE3       30.01R
METROPOLIS*    CLOUDY    62  60  94 CALM      30.03S
$$

ILZ067-068-072-073-078-083-087-091-241200-
SOUTHEAST ILLINOIS

CITY           SKY/WX    TMP DP  RH WIND       PRES   REMARKS
LAWRENCEVILLE  PTCLDY    56  52  86 E6        30.04R
FLORA*         CLEAR     57  53  87 CALM      30.03R
FAIRFIELD*     CLEAR     57  55  92 CALM      30.02R
HARRISBURG*    CLOUDY    59  56  89 CALM      30.03R
ROBINSON*      MOCLDY    52  50  94 CALM      30.05R
CARMI*         PTCLDY    58  54  87 SE3       30.03R
$$

ABBREVIATIONS USED IN REMARKS
   TC - TEMPERATURE IN CELSIUS
  WCI - WIND CHILL INDEX
   HX - HEAT INDEX
  VSB - VISIBILITY
$$





USA.gov is the U.S. government's official web portal to all federal, state and local government web resources and services.